Regional Weather Roundup
Issued by NWS

Home | Current Version | Previous Version | Graphics & Text | Print | Product List | Glossary On
Versions: 1 2 3 4 5 6 7 8 9 10 11 12 13 14 15 16 17 18 19 20 21 22 23 24 25 26 27 28 29 30 31 32 33 34 35 36 37 38 39 40 41 42 43 44 45 46 47 48 49 50
000
ASUS43 KBIS 192359
RWRND

NORTH DAKOTA REGIONAL WEATHER ROUNDUP
NATIONAL WEATHER SERVICE BISMARCK ND
700 PM CDT SUN OCT 19 2014

NOTE: "FAIR" INDICATES FEW OR NO CLOUDS BELOW 12,000 FEET WITH NO
SIGNIFICANT WEATHER AND/OR OBSTRUCTIONS TO VISIBILITY.


NDZ001>003-009>011-017-200100-
NORTHWEST NORTH DAKOTA

CITY           SKY/WX    TMP DP  RH WIND       PRES   REMARKS
WILLISTON      CLEAR     64  38  38 SE3       29.98S
6HR MIN TEMP:  64; 6HR MAX TEMP:  70;

MINOT          CLEAR     58  37  45 W8        29.96R
$$

NDZ018>021-031>035-040>046-200100-
SOUTHWEST NORTH DAKOTA

CITY           SKY/WX    TMP DP  RH WIND       PRES   REMARKS
BISMARCK       CLEAR     64  38  38 NW7       29.98R
6HR MIN TEMP:  64; 6HR MAX TEMP:  73;

GARRISON         N/A     55  33  43 NW5       29.98R
6HR MIN TEMP:  55; 6HR MAX TEMP:  71;

HETTINGER ARPT CLEAR     59  35  40 N8        30.03R
$$

NDZ004>008-012>016-024-026-027-054-200100-
NORTHEAST NORTH DAKOTA

CITY           SKY/WX    TMP DP  RH WIND       PRES   REMARKS
GRAND FORKS    CLEAR     51  41  68 CALM      29.86R
DEVILS LAKE    CLEAR     57  39  51 W7        29.91R
$$

NDZ022-023-025-028>030-036>039-047>053-200100-
SOUTHEAST NORTH DAKOTA

CITY           SKY/WX    TMP DP  RH WIND       PRES   REMARKS
FARGO          CLEAR     58  40  51 N7        29.88R
6HR MIN TEMP:  58; 6HR MAX TEMP:  71;

JAMESTOWN      CLEAR     53  38  56 NW8       29.93R
$$




USA.gov is the U.S. government's official web portal to all federal, state and local government web resources and services.